Wind_Speed
22 23 24 25 26 27 28 27 27 27 27 28 27 26 26 25 26 26 27 27 27 28 28 29 30 30 31 32 32 34 35 36 36 37 38 40 41 42 42 42 43 43 43
22 22 23 24 24 25 26 26 26 26 26 26 26 25 26 26 26 27 27 28 28 28 29 29 29 30 31 32 32 34 34 35 36 37 38 39 40 40 40 40 40 40 39
21 22 22 22 22 22 23 23 23 23 23 24 24 25 26 26 26 27 27 27 27 27 28 29 29 30 31 32 32 33 34 35 36 37 37 37 37 37 37 36 35 35 35
19 20 20 21 21 21 21 23 22 22 23 23 24 24 25 25 25 26 26 26 26 27 27 28 29 31 31 32 33 33 34 34 34 34 34 33 33 33 32 32 32 32 32
17 18 18 18 18 19 20 20 21 21 21 22 23 22 22 23 24 25 26 26 27 27 28 29 29 30 31 31 31 31 31 31 31 30 30 30 30 29 29 29 29 29 29
15 15 15 16 17 17 17 18 18 19 20 20 20 21 22 22 23 24 25 26 27 27 28 29 29 29 29 29 28 28 28 28 28 28 28 28 28 27 27 27 27 26 26
13 13 14 13 13 14 15 15 17 17 18 19 19 20 21 22 23 24 24 25 26 26 27 27 27 26 25 25 25 25 26 26 26 26 26 26 26 25 24 24 24 24 23
11 11 11 12 12 13 13 14 14 15 16 17 18 19 20 20 21 22 22 23 23 23 23 23 23 23 23 23 24 24 24 24 24 24 24 23 23 22 21 21 21 21 20
10 10 10 11 10 10 11 12 13 13 14 15 16 17 17 17 18 18 19 20 20 20 20 20 21 21 21 22 22 22 22 22 21 21 21 20 20 19 19 19 18 18 17
9 9 9 9 8 9 9 9 10 10 11 12 13 14 14 14 15 16 17 17 18 18 17 17 18 18 18 19 19 19 19 19 19 18 18 18 18 17 17 17 16 16 16
7 7 7 8 8 8 9 9 9 9 10 11 11 12 12 13 13 14 14 14 14 14 14 15 15 15 16 16 16 16 16 16 16 16 16 16 16 16 15 15 15 15 15
4 5 6 6 7 7 7 8 8 9 8 9 9 9 10 10 10 10 10 11 11 12 13 13 13 14 14 15 15 15 14 14 14 14 14 14 14 14 14 14 13 13 13
2 3 3 3 4 4 5 5 6 6 6 6 7 8 8 8 8 8 9 10 10 11 12 12 13 13 13 13 13 13 12 12 12 12 12 12 12 12 12 12 11 11 11
0 0 1 1 2 3 3 3 3 4 4 5 5 6 6 6 7 7 8 9 10 10 11 11 11 11 11 11 10 10 10 10 10 10 10 10 10 10 10 10 9 9 9
3 3 3 3 3 3 3 2 2 2 3 3 3 4 4 5 6 7 7 8 8 8 8 9 9 9 8 8 9 9 9 9 8 8 8 8 8 8 8 7 7 7 7
5 4 5 5 5 5 5 5 4 4 3 3 3 4 4 5 6 6 6 7 7 7 7 7 7 7 7 8 8 7 7 7 7 7 7 7 7 7 6 6 6 6 6
7 7 7 8 8 8 8 7 7 6 6 5 6 6 6 7 7 7 7 7 7 7 7 7 7 7 7 7 6 6 6 6 6 6 6 6 6 5 5 5 5 5 5
9 9 9 9 9 9 9 9 9 9 9 9 9 9 9 9 9 9 9 9 8 8 8 8 7 7 6 6 6 6 5 5 5 5 5 5 4 4 4 5 5 5 5
11 11 10 10 10 10 11 11 11 11 11 11 11 11 11 11 11 11 11 11 11 10 10 9 9 8 7 7 7 6 6 6 5 5 5 5 4 4 4 5 5 5 5
12 12 12 12 11 11 12 13 13 13 13 13 13 13 13 13 13 13 13 13 13 12 12 11 11 11 10 9 8 8 8 7 7 6 6 6 5 5 5 5 5 5 6
14 14 14 14 14 13 13 14 14 14 14 13 13 13 14 14 15 15 15 15 15 14 14 14 13 13 12 11 10 10 9 9 8 7 7 6 6 6 6 6 6 6 6
15 15 15 15 15 15 14 14 14 14 14 14 14 14 15 15 15 15 16 16 16 16 16 15 15 14 13 13 12 11 10 10 9 8 8 7 7 7 7 7 7 6 6
15 15 15 15 15 15 15 15 14 14 14 14 14 14 14 14 14 14 15 15 15 15 15 15 15 15 14 14 13 12 11 11 10 9 8 8 8 7 7 7 7 7 7
15 15 15 15 15 15 15 14 14 14 14 14 14 14 14 14 14 14 14 15 15 15 15 15 14 14 14 13 13 13 12 12 11 10 9 9 8 8 8 8 8 8 8
15 15 15 15 15 15 14 14 13 13 13 13 13 13 13 13 13 13 13 14 14 14 14 14 14 14 14 13 13 13 12 12 12 11 11 10 10 9 9 9 9 9 9
15 15 15 15 14 14 14 13 13 13 13 12 12 12 12 13 13 13 13 13 13 14 14 14 14 14 14 14 13 13 13 13 12 12 12 11 11 11 11 10 11 11 11
Wind_Direction
264 263 261 260 260 260 263 265 265 266 265 263 264 265 266 265 264 264 265 267 269 271 272 272 273 275 276 277 278 279 279 280 281 281 282 283 284 285 286 287 287 288 289
264 263 262 260 261 261 262 263 263 264 262 261 263 263 265 264 264 266 267 268 269 270 271 273 275 277 277 278 279 280 280 281 281 281 282 283 284 285 286 288 289 290 292
265 264 263 262 261 262 261 261 261 261 262 263 263 263 265 265 264 265 266 267 268 270 272 274 276 277 278 279 279 280 280 280 281 282 283 284 285 287 288 289 290 292 293
265 263 263 262 261 261 261 260 259 260 261 262 262 263 264 264 264 265 265 266 269 272 274 275 276 277 277 278 278 279 280 281 282 283 284 285 287 288 289 290 291 293 293
265 262 261 261 261 262 262 258 257 259 260 260 260 261 263 264 265 265 266 268 270 270 272 274 274 275 277 277 278 279 281 282 284 285 286 286 287 288 289 290 291 292 293
263 263 261 260 262 262 261 260 261 261 263 262 263 263 262 262 263 264 266 268 269 270 272 274 275 277 278 279 279 281 282 283 284 285 285 286 287 288 289 290 291 293 295
264 262 259 261 260 260 261 263 263 262 262 260 261 262 263 263 264 267 268 270 270 271 273 276 279 280 280 280 282 283 284 285 284 285 285 285 286 287 289 291 293 295 298
266 265 261 264 262 264 264 264 263 261 261 261 264 265 266 266 266 267 269 270 271 274 277 278 280 281 281 282 284 285 285 286 286 285 285 285 286 287 289 292 295 297 298
265 268 272 269 265 265 265 265 266 264 263 265 266 267 266 265 266 269 270 272 274 277 278 280 281 282 283 284 286 287 288 287 286 286 286 286 286 288 291 294 296 299 300
271 270 271 270 271 269 269 270 267 267 268 269 270 269 269 269 270 273 275 276 277 279 281 283 283 285 286 288 290 290 290 290 289 288 287 286 287 289 292 295 298 300 302
270 266 269 272 272 270 270 269 270 273 273 273 274 274 274 274 274 274 276 278 280 282 284 286 288 290 291 292 293 293 293 292 291 290 288 287 288 291 295 298 300 301 304
269 270 274 276 275 271 269 270 272 276 276 277 278 279 279 280 280 279 280 284 286 288 289 290 291 293 294 294 294 295 295 295 294 292 291 291 292 294 297 300 301 301 305
264 270 277 281 285 284 280 277 277 278 280 285 287 286 287 289 290 291 293 295 295 295 294 295 296 297 297 296 296 296 296 295 294 295 296 296 297 297 298 300 300 302 306
190 343 11 352 335 323 312 303 296 295 296 300 301 300 301 302 302 303 303 302 301 301 300 300 301 301 301 301 300 299 298 298 298 299 300 302 303 301 300 301 302 305 309
101 95 63 38 25 18 13 7 352 337 333 333 332 330 328 324 321 319 319 318 317 315 313 311 310 310 309 309 309 306 305 306 306 308 309 309 310 309 308 309 312 317 320
94 86 73 61 58 57 54 53 52 49 38 25 20 14 4 357 352 348 344 340 338 336 333 329 326 324 323 322 321 320 318 317 317 318 318 319 319 319 319 322 323 327 331
89 85 78 73 71 68 62 60 59 60 58 52 46 42 35 29 22 16 12 8 4 0 357 353 348 343 338 337 337 337 336 334 332 330 329 328 328 329 331 334 336 338 340
85 84 81 78 74 70 67 66 65 64 63 63 60 54 48 44 40 36 30 25 22 19 15 11 8 5 3 1 0 358 355 351 349 348 346 347 349 351 350 348 345 344 344
86 85 83 79 76 73 71 69 68 68 68 66 62 58 54 51 46 42 38 36 34 32 30 27 25 24 24 23 22 20 16 12 11 10 9 9 8 6 2 358 352 348 346
85 85 84 82 79 76 73 72 71 70 69 67 64 60 56 53 50 48 45 44 43 42 41 40 39 38 37 35 34 32 30 29 28 25 21 19 16 13 11 8 2 356 352
84 84 84 82 81 80 78 76 73 71 69 66 63 61 58 56 54 51 49 49 49 48 47 45 43 42 42 41 40 37 35 35 35 32 28 24 22 18 13 10 8 4 359
83 83 83 83 82 81 79 76 74 72 70 68 65 62 60 57 54 52 50 50 49 48 47 46 44 43 43 42 40 37 35 33 31 29 28 27 24 18 14 10 6 3 358
83 83 82 81 80 79 77 75 73 71 68 65 62 60 57 55 52 49 47 45 44 44 43 42 41 41 40 39 38 36 34 32 30 29 26 22 16 10 4 1 360 359 356
83 82 80 79 78 76 74 72 70 68 65 62 59 57 54 51 47 45 42 41 40 40 40 38 37 36 35 34 33 32 30 28 25 21 17 12 8 4 0 358 357 356 351
80 79 77 76 74 73 71 69 67 65 63 60 56 53 50 47 43 40 38 37 36 35 34 32 30 28 27 25 24 22 21 19 16 13 10 7 4 360 356 353 351 347 343
75 74 72 71 70 69 69 67 64 60 57 54 51 47 44 41 37 34 32 30 29 27 26 24 22 20 19 17 15 13 11 9 7 5 2 359 357 354 350 346 341 338 334
Height
5751 5752 5753 5754 5755 5757 5758 5759 5760 5761 5761 5762 5763 5764 5764 5765 5765 5766 5767 5767 5767 5767 5767 5767 5767 5766 5765 5765 5764 5763 5762 5761 5759 5757 5755 5753 5750 5748 5744 5742 5739 5735 5732
5745 5746 5747 5748 5749 5750 5751 5752 5752 5753 5754 5755 5755 5756 5757 5757 5758 5759 5759 5759 5759 5759 5759 5759 5758 5758 5757 5756 5755 5754 5752 5751 5749 5747 5745 5743 5740 5737 5734 5731 5728 5725 5721
5738 5739 5740 5741 5742 5743 5744 5745 5745 5746 5747 5747 5748 5749 5749 5750 5751 5751 5751 5751 5751 5751 5751 5750 5750 5749 5748 5747 5746 5744 5743 5741 5739 5737 5735 5732 5730 5727 5724 5721 5718 5715 5712
5732 5732 5733 5734 5735 5736 5737 5738 5738 5739 5740 5741 5741 5742 5742 5743 5743 5744 5744 5744 5744 5743 5743 5742 5741 5740 5739 5738 5736 5735 5733 5732 5729 5727 5725 5723 5720 5718 5715 5713 5710 5707 5704
5726 5726 5727 5728 5728 5729 5730 5731 5732 5732 5733 5734 5734 5735 5735 5735 5736 5736 5736 5736 5736 5735 5735 5734 5733 5731 5730 5729 5728 5726 5724 5722 5720 5718 5716 5714 5712 5710 5707 5705 5702 5699 5696
5721 5721 5722 5722 5723 5724 5724 5725 5725 5726 5726 5727 5727 5728 5728 5729 5729 5729 5729 5729 5728 5728 5727 5726 5724 5723 5722 5721 5719 5717 5716 5714 5712 5710 5708 5706 5704 5702 5700 5698 5695 5693 5690
5716 5717 5717 5717 5718 5718 5719 5719 5720 5720 5720 5721 5721 5721 5721 5722 5722 5722 5721 5721 5721 5720 5719 5718 5717 5716 5714 5713 5712 5710 5708 5706 5704 5703 5701 5699 5697 5695 5693 5691 5689 5686 5684
5713 5713 5713 5713 5714 5714 5714 5714 5714 5715 5715 5715 5715 5715 5715 5715 5715 5715 5715 5714 5713 5713 5712 5711 5710 5709 5707 5706 5704 5703 5701 5699 5697 5695 5694 5692 5690 5689 5687 5685 5683 5681 5678
5709 5709 5709 5709 5710 5710 5710 5710 5710 5710 5710 5710 5710 5710 5710 5709 5709 5709 5708 5708 5707 5706 5706 5704 5703 5702 5701 5699 5698 5696 5694 5692 5690 5689 5687 5686 5684 5683 5681 5680 5678 5676 5674
5706 5706 5706 5706 5706 5706 5706 5706 5706 5706 5706 5706 5705 5705 5705 5704 5704 5703 5703 5702 5702 5701 5700 5698 5697 5696 5694 5693 5691 5690 5688 5686 5685 5683 5682 5680 5679 5678 5676 5675 5673 5671 5669
5703 5703 5703 5703 5703 5703 5703 5703 5703 5702 5702 5702 5702 5701 5700 5700 5699 5699 5698 5698 5697 5696 5695 5693 5692 5691 5689 5688 5686 5685 5683 5681 5680 5678 5677 5676 5674 5673 5672 5670 5669 5667 5665
5700 5700 5700 5700 5700 5700 5700 5700 5700 5699 5699 5699 5698 5698 5697 5696 5696 5695 5694 5693 5692 5692 5690 5689 5688 5686 5685 5683 5682 5680 5679 5677 5676 5674 5673 5671 5670 5669 5667 5666 5665 5663 5662
5698 5698 5698 5698 5698 5698 5697 5697 5697 5697 5697 5696 5696 5695 5695 5694 5693 5692 5691 5690 5689 5688 5687 5685 5684 5682 5681 5679 5678 5676 5675 5674 5672 5671 5669 5668 5666 5665 5664 5663 5662 5660 5659
5697 5697 5697 5697 5697 5696 5696 5696 5696 5695 5695 5694 5694 5693 5692 5692 5691 5690 5689 5687 5686 5685 5683 5682 5681 5679 5678 5676 5675 5673 5672 5670 5669 5668 5666 5665 5664 5662 5661 5660 5659 5658 5657
5697 5697 5697 5697 5696 5696 5695 5695 5695 5694 5694 5693 5693 5692 5691 5690 5689 5688 5687 5685 5684 5682 5681 5679 5678 5677 5675 5674 5672 5670 5669 5668 5667 5665 5664 5663 5662 5660 5659 5658 5657 5656 5654
5698 5698 5698 5698 5697 5696 5696 5695 5694 5694 5694 5693 5692 5692 5690 5689 5688 5687 5685 5684 5682 5681 5679 5678 5676 5675 5673 5671 5670 5668 5667 5666 5665 5664 5662 5661 5660 5659 5658 5657 5656 5655 5653
5699 5699 5699 5699 5698 5698 5697 5696 5695 5695 5694 5693 5693 5692 5691 5689 5688 5686 5685 5683 5682 5680 5679 5677 5675 5673 5672 5670 5669 5667 5666 5665 5664 5663 5661 5660 5659 5658 5657 5656 5655 5654 5653
5701 5701 5701 5701 5700 5700 5699 5698 5697 5696 5696 5695 5694 5693 5692 5690 5689 5687 5686 5684 5682 5680 5678 5677 5675 5673 5671 5670 5668 5667 5666 5665 5663 5662 5661 5660 5659 5658 5657 5656 5655 5654 5653
5704 5703 5703 5703 5702 5702 5701 5700 5699 5698 5698 5697 5696 5695 5694 5692 5691 5689 5687 5685 5683 5681 5679 5677 5675 5674 5672 5670 5669 5667 5666 5665 5663 5662 5661 5660 5659 5658 5657 5656 5655 5654 5653
5707 5706 5706 5705 5705 5704 5704 5703 5702 5701 5701 5700 5699 5698 5696 5695 5693 5691 5689 5687 5685 5683 5681 5679 5677 5675 5673 5671 5670 5668 5667 5665 5664 5663 5662 5661 5659 5658 5657 5656 5655 5654 5653
5710 5709 5709 5708 5708 5708 5707 5706 5706 5705 5704 5703 5702 5701 5699 5697 5696 5694 5692 5690 5688 5686 5684 5682 5679 5677 5675 5674 5672 5670 5669 5667 5665 5664 5663 5662 5660 5659 5658 5657 5655 5654 5653
5714 5714 5713 5712 5712 5711 5711 5710 5709 5708 5708 5707 5705 5704 5702 5701 5699 5697 5695 5693 5691 5689 5687 5685 5682 5680 5678 5676 5674 5673 5671 5669 5667 5666 5664 5663 5662 5660 5659 5657 5656 5654 5653
5718 5718 5717 5716 5716 5715 5714 5714 5713 5712 5711 5710 5709 5707 5706 5704 5702 5701 5699 5696 5694 5692 5690 5688 5686 5683 5681 5679 5677 5675 5673 5671 5669 5668 5666 5664 5663 5661 5660 5658 5656 5655 5653
5722 5722 5721 5720 5720 5719 5718 5717 5717 5716 5714 5713 5712 5710 5709 5707 5705 5704 5702 5699 5697 5695 5693 5691 5689 5686 5684 5682 5680 5678 5675 5673 5671 5669 5667 5666 5664 5662 5660 5658 5656 5655 5653
5727 5726 5725 5725 5724 5723 5722 5721 5720 5719 5718 5716 5715 5713 5712 5710 5708 5706 5704 5702 5700 5698 5696 5693 5691 5689 5687 5684 5682 5680 5677 5675 5673 5671 5669 5666 5664 5662 5660 5658 5656 5654 5652
5731 5730 5729 5728 5727 5726 5725 5724 5723 5722 5720 5719 5717 5716 5714 5712 5711 5709 5706 5704 5702 5700 5698 5695 5693 5691 5688 5686 5684 5681 5679 5676 5674 5672 5669 5667 5665 5662 5660 5658 5656 5654 5652